Tracking 30107 objects as of 18-Jan-2025
HD Live streaming from Space Station
objects crossing your sky now

ARIANE 42P+ DEB

Track ARIANE 42P+ DEB now!
10-day predictions


NORAD ID: 34184
Int'l Code: 1992-072Q
Perigee: 254.2 km
Apogee: 25,054.8 km
Inclination: 7.1 °
Period: 435.3 minutes
Semi major axis: 19025 km
RCS: 0.3004 m2 (medium)
Launch date: October 28, 1992
Source: France (FR)
Launch site: FRENCH GUIANA (FRGUI)

Note: This is SATELLITE DEBRIS
Your satellite tracking list
Your tracking list is empty




NASA's NSSDC Master Catalog

Two Line Element Set (TLE):
1 34184U 92072Q   25016.60904039  .00011298  00000-0  16537-2 0  9990
2 34184   7.0564  14.5757 6517726  97.0536 335.8027  3.30825967258351
Source of the keplerian elements: AFSPC